EST,Max TemperatureF,Mean TemperatureF,Min TemperatureF,Max Dew PointF,MeanDew PointF,Min DewpointF,Max Humidity, Mean Humidity, Min Humidity, Max Sea Level PressureIn, Mean Sea Level PressureIn, Min Sea Level PressureIn, Max VisibilityMiles, Mean VisibilityMiles, Min VisibilityMiles, Max Wind SpeedMPH, Mean Wind SpeedMPH, Max Gust SpeedMPH,PrecipitationIn, CloudCover, Events, WindDirDegrees
2013-1-1,35,33,31,34,32,27,100,89,78,30.15,30.07,30.03,10,4,1,8,3,10,0.11,8,Rain,340
2013-1-2,34,28,21,27,22,19,96,76,56,30.25,30.20,30.12,10,8,2,9,2,12,0.00,2,,341
2013-1-3,39,28,17,22,19,15,92,68,44,30.38,30.30,30.24,10,9,5,14,3,20,0.00,0,,261
2013-1-4,38,32,25,25,23,21,88,74,59,30.42,30.38,30.34,10,10,6,16,5,23,0.00,4,,246
2013-1-5,44,32,20,30,25,18,92,71,49,30.40,30.31,30.20,10,9,6,12,3,15,0.00,3,,212
2013-1-6,44,35,26,34,27,19,76,70,63,30.39,30.18,30.08,10,10,8,20,9,26,0.00,7,,257
2013-1-7,42,31,20,25,22,17,92,72,51,30.49,30.40,30.26,10,6,2,10,2,14,0.00,1,,92
2013-1-8,53,37,21,33,27,19,92,69,45,30.36,30.29,30.25,10,9,6,16,3,21,0.00,0,,191
2013-1-9,55,46,36,44,39,32,100,81,61,30.51,30.40,30.25,10,8,1,10,3,14,T,3,,229
2013-1-10,54,44,34,49,40,34,100,83,65,30.50,30.35,30.09,10,6,0,13,5,16,0.30,5,Fog-Rain,82
2013-1-11,65,57,49,55,52,48,100,78,56,30.05,29.97,29.91,10,8,2,23,9,30,0.48,5,Rain,198
2013-1-12,65,60,54,63,59,54,100,94,87,30.03,29.97,29.82,10,8,1,15,6,18,0.04,6,Rain,177
2013-1-13,66,51,36,59,53,33,100,87,73,30.17,29.92,29.79,10,6,2,21,10,30,2.28,8,Rain,223
2013-1-14,36,31,25,34,25,21,96,84,72,30.45,30.32,30.17,10,10,10,13,7,18,0.00,6,,343
2013-1-15,34,30,26,31,25,21,100,85,69,30.35,30.22,30.06,10,7,3,14,8,20,0.20,7,Rain,32
2013-1-16,33,32,31,31,30,30,100,95,89,30.13,30.07,30.00,7,4,2,9,4,12,0.11,6,,244
2013-1-17,40,35,30,31,29,23,100,82,64,30.40,30.21,30.13,10,8,5,14,4,28,0.00,2,,20
2013-1-18,41,31,21,24,20,16,84,65,46,30.55,30.45,30.32,10,10,10,13,6,17,0.00,0,,181
2013-1-19,54,45,35,30,26,23,64,48,32,30.30,30.16,30.02,10,10,10,26,15,33,0.00,0,,206
2013-1-20,46,35,23,32,17,6,76,51,25,30.24,30.16,30.03,10,10,10,18,7,24,0.00,0,,289
2013-1-21,31,23,15,17,9,0,84,58,31,30.29,30.19,30.12,10,10,3,21,8,31,0.00,2,,278
2013-1-22,21,16,10,1,-2,-5,63,49,34,30.45,30.37,30.29,10,10,3,13,6,20,0.00,1,,275
2013-1-23,34,22,10,16,9,2,76,58,39,30.40,30.27,30.11,10,10,10,12,4,17,0.00,3,,247
2013-1-24,29,24,18,18,3,-5,67,46,25,30.58,30.44,30.15,10,10,10,23,9,31,0.00,0,,34
2013-1-25,27,24,21,25,18,5,100,73,45,30.40,30.16,30.05,10,7,2,14,6,17,T,7,Snow,162
2013-1-26,38,29,19,25,21,17,96,70,44,30.43,30.30,30.18,10,7,2,14,4,18,0.00,2,,254
2013-1-27,45,33,21,40,26,17,93,67,41,30.43,30.34,30.19,10,8,4,10,7,14,0.16,4,Rain,125
2013-1-28,55,49,42,52,47,39,96,84,71,30.17,30.12,30.08,10,7,2,23,12,30,0.12,7,Rain,203
2013-1-29,67,60,53,58,54,50,89,81,73,30.09,29.92,29.64,10,10,9,24,13,32,0.00,6,,191
2013-1-30,70,51,32,59,48,24,100,83,66,29.66,29.47,29.35,10,8,1,31,15,41,1.14,7,Rain,231
2013-1-31,34,28,21,29,21,18,100,78,56,30.04,29.93,29.71,10,5,0,25,12,40,0.06,8,Fog-Snow,272